Simultaneous Nadir Overpasses (SNOs) Predictions

Prediction of SNOs between GOES-17 and METOP-A Satellite Orbit:

Table of predicted SNOs for the next 14.0 days since TLE Epoch: 4/10/2020
Index Date Time (GOES-17) GOES-17 Lat,Lon METOP-A Lat,Lon Distance(km) Time Diff (sec)
1 04/13/2020 05:51:06 -0.03,-137.19 0.09,-136.76 48.95 80
2 04/14/2020 18:09:57 0.02,-137.20 0.94,-141.35 472.86 80
3 04/15/2020 17:51:58 0.02,-137.19 -0.16,-136.37 93.71 80
4 04/17/2020 06:10:58 -0.02,-137.16 -0.89,-141.00 437.55 80
5 04/18/2020 05:47:38 -0.02,-137.15 0.22,-136.02 128.82 80
6 04/19/2020 18:06:31 0.02,-137.16 0.76,-140.62 393.53 80
7 04/20/2020 17:48:30 0.02,-137.15 -0.29,-135.62 172.76 80
8 04/22/2020 06:07:32 -0.02,-137.11 -0.70,-140.26 359.07 80
9 04/23/2020 05:44:12 -0.02,-137.09 0.41,-135.28 206.76 80
10 04/24/2020 18:03:03 0.02,-137.09 0.63,-139.87 316.83 80




NCC Satellite Simultaneous Nadir Overpasses (SNOs) Prediction Service
